OBJECT AG, 59128

Orbit data source: Space-Track

You're viewing an Uncataloged Satellite

Recently launched and/or uncataloged satellites may have evolving metadata. Metadata may include but not limited to: Owner, Maufacturer, Bus, Motor, and Mission.

OBJECT AG, 59128 is a satellite in SSO that was launched on Mon, 04 Mar 2024 UTC via an FALCON 9 launch vehicle from the Air Force Western Test Range (AFWTR). Unknown objects in Earth's orbit typically refer to objects detected orbiting the Earth but have not yet been identified or cataloged. These objects could be anything from previously untracked satellites, spent rocket stages, debris from satellite collisions, or even natural meteoroids temporarily captured by Earth's gravity.

Loading next visibility...
Identifier
59128, 2024-043AG
Orbit
SSO
Last TLE update
9 hours ago
Origin
Flag of TBDORBAS (TBD)
Manufacturer
OrbAstro
Mission
Operational Commercial Sigint
Bus & Motor
CUBESAT 6U, Unknown motor
Mass
~10 kg wet, ~10 kg dry
Launch date (UTC)
2024-03-04 (1 year ago)
Launch vehicle
FALCON 9
Launch site
Air Force Western Test Range (AFWTR)
Object type
Unknown
Shape & HBR
Box + 2 Pan, 3 m
Radar Cross Section
0.969 m², Large (>1 m²)

Expand to show TLE details & history

TLE from 9 hours ago
0 OBJECT AG
1 59128U 24043AG  25182.39052508  .00004664  00000-0  18192-3 0  9992
2 59128  97.5195 311.2860 0012023  46.2112 314.0119 15.26374588 73501
Epoch: 2025-07-01T09:22Z
TLE epoch observation values (Epoch: 2025-07-01T09:22:21.366Z)
Latitude
-0.00002°
Longitude
-108.98968°
Altitude
484.026 km
Speed
7.626 km/s
True Right ascension
20h 45m 08s
True Declination
0° 00' 00"
Sunlit
Object was in full shadow at epoch
Visualization orbit readout
Latitude
0.48286°
Longitude
71.43638°
Altitude
495.461 km
Speed
7.614 km/s
Apparent Right ascension
11h 48m 32s
Apparent Declination
-38° 50' 12"
Sunlit
Object is in daylight
Visualization observer readout
Local Sidereal Time
05:41:00
Azimuth
120.826° SE
Elevation
-24.962°
Doppler factor
1
Orbital elements
Apogee altitude
491.873 km
Perigee altitude
475.373 km
Semi-major axis
6,861.76 km
Eccentricity
0.0012
Inclination
97.5195°
RAAN
311.286°
Arg. of periapsis
46.2112°
True anomaly
Unknown
Mean anomaly
314.0119°
Eccentric anomaly
Unknown
Mean motion
3.81847 °/min
Orbital period
94.28 mins
BSTAR
0.00018192
Loading maneuver chart data...
Loading SW <> Apogee altitude chart data...
Loading historical data...
Loading historical data...
Loading historical data...
Loading historical data...
Loading historical data...
Loading historical data...
Loading historical data...

OBJECT AG Visibility forecast

Observer location: undefined°, undefined°

Span
Click to sort rows by Start time (UTC) header in descending order
Start Az.
Max El. time (UTC)
Max El. Az.
Max El.
End time (UTC)
End Az.
5 mins2025-07-01 20:57:19.266Z37.825° NE2025-07-01 21:00:19.266Z109.596° ESE27.132°2025-07-01 21:02:19.266Z153.8° SSE
4 mins2025-07-02 09:07:19.266Z216.468° SW2025-07-02 09:08:19.266Z247.774° W30.125°2025-07-02 09:11:19.266Z325.804° NNW
|